Погода в Куинстауне

Новая Зеландия     45°01′42″S   168°39′47″E
темп.,
°C
ветер,
м/с
пор.,
м/с
влажн.,
%
обл.,
%
осадки,
мм/ч
давл.,
гПа
погр.,
м
19 января, ср
ср1901:00+13з2295100 1.2 101020
04:00+12з1195100 0.1 100812
07:00+14зсз1191100 0.9 100646
10:00+13з1293100 5.0 100596
13:00+14зюз1183100 6.9 1003142
16:00+12ююз448595 4.0 1004288
19:00+11ю448087 4.8 1004547
22:00+6ю5684100 0.4 1008508
20 января, чт
чт2001:00+3ююз4689100 1.0 1010430
04:00+3ююз238437 0.3 1011184
07:00+2юз22866 0.3 101264
10:00+5юз227481 0.0 1013388
13:00+10зюз235455 0.1 10111409
16:00+14зюз3639100 0.0 10071941
19:00+12юз4550100 0.0 10091353
22:00+9юз3365100 0.0 101156
21 января, пт
пт2101:00+7зюз2274100 0.0 101220
04:00+6юз2377100 0.0 101335
07:00+5ююз348794 0.0 101579
10:00+11ююз34545 0.0 1016833
13:00+15ююз35415 0.0 10161333
16:00+17ю35445 0.0 10161424
19:00+18ююз34476 0.0 10161161
22:00+12ю337367 0.0 101934
22 января, сб
сб2201:00+10юз227864 0.0 101915
04:00+8зюз1285100 0.0 101910
07:00+8зюз22875 0.0 101811
10:00+16з22582 0.0 1017430
13:00+22з35292 0.0 10141795
16:00+25зсз47210 0.0 10112387
19:00+22з46275 0.0 10112033
22:00+13ююз346099 0.0 101350
23 января, вс
вс2301:00+8ююв23881 0.0 101640
04:00+6ю22903 0.0 101631
07:00+5ю23882 0.0 101753
10:00+12ю23535 0.0 1016502
13:00+18ю22325 0.0 10141138
16:00+20ююв33270 0.0 10121613
19:00+18ююв43340 0.0 1012968
22:00+10ююв33590 0.0 101542